Showing default

SPACEMOBILE-013, 100240

Orbit data source: Space-Track

SPACEMOBILE-013, 100240 is a payload satellite owned by AST & Science (US) in LEO that was launched on Wed, 05 Aug 2026 UTC launched from the Air Force Eastern Test Range (AFETR). Payload-class satellites include a variety of spacecraft equipped with specific instruments for various scientific and technological missions. These include communications satellites like Starlink; space stations such as the ISS; scientific satellites like the Hubble; Earth observation satellites from companies like Planet Labs, Umbra, and HawkEye 360; GPS; miniature CubeSats for education and research; and military/defense satellites.

Loading next visibility...
Identifier
100240, 2026-179A
Orbit
LEO
Country
Flag of USUS
Related business
Manufacturer
AST & Science
Mission
Operational spacecraft
Bus & Motor
BB BLOCK-2, EP
Mass
6,740 kg wet, 5,830 kg dry
Launch date (UTC)
2026-08-05 (1 month ago)
Launch vehicle
Unknown
Launch site
Air Force Eastern Test Range (AFETR)
Object type
Payload
Rocket body
Debris
Shape & HBR
CYL + 2 PAN + PLATE, 14.5 m
Radar Cross Section
Large (>1 m²)

Expand to show TLE details & history
Last TLE update: 13 hours ago

TLE from 13 hours ago
0 SPACEMOBILE-013
1 A0240U 26179A   26251.20774972  .00001649  00000-0  10895-3 0  9991
2 A0240  52.9959 174.1527 0007312  75.8148 284.3656 15.13099502  5138
Epoch: 2026-09-08T04:59Z
TLE epoch observation values (Epoch: 2026-09-08T04:59:09.575Z)
Latitude
0.00003°
Longitude
112.08536°
Altitude
526.381 km
Speed
7.602 km/s
True Right ascension
11h 36m 36s
True Declination
0° 00' 00"
Sunlit
Object was in daylight at epoch
Visualization orbit readout
Latitude
Unknown
Longitude
Unknown
Altitude
Unknown
Speed
Unknown
Apparent Right ascension
Unknown
Apparent Declination
Unknown
Sunlit
N/A
Visualization observer readout
Local Sidereal Time
10:07:46
Azimuth
Unknown
Elevation
Unknown
Doppler factor
Unknown
Orbital elements
Apogee altitude
532.084 km
Perigee altitude
521.986 km
Semi-major axis
6,905.172 km
Eccentricity
0.00073
Inclination
52.9959°
RAAN
174.1527°
Arg. of periapsis
75.8148°
True anomaly
284.28441°
Mean anomaly
284.3656°
Eccentric anomaly
284.32501°
Mean motion
3.78252 °/min
Orbital period
95.17 mins
BSTAR
0.00010895
Loading maneuver chart data...
Computing Atmospheric mass density...
Loading historical data...
Loading historical data...
Loading historical data...
Loading historical data...
Loading historical data...
Loading historical data...
Loading historical data...
Other satellites on launch #179 in the year 2026 (2026-08-05 UTC)

Documentation

Showing up to 5 results
|